Coatesville, PA

4:17 AM EDT on May 28, 2018 (GMT -0400)
Chester County Carlson

Weather History for KMQS - December, 2013

Change the Weather History Date:

Tuesday, December 31, 2013

  Actual Average (KILG) Record (KILG)
Temperature  
Mean Temperature 29 °F -  
Max Temperature 35 °F 41 °F 67 °F (1992)
Min Temperature 23 °F 25 °F -4 °F (1917)
Degree Days  
Heating Degree Days 36    
Moisture  
Dew Point 16 °F    
Average Humidity 58    
Maximum Humidity 70    
Minimum Humidity 48    
Precipitation  
Precipitation 0.00 in - - ()
Sea Level Pressure  
Sea Level Pressure 30.17 in    
Wind  
Wind Speed 6 mph (WNW)    
Max Wind Speed 24 mph    
Max Gust Speed 29 mph    
Visibility 10 miles    
Events      
Averages and records for this station are not official NWS values.
T = Trace of Precipitation, MM = Missing Value Source: NWS Daily Summary

Daily Weather History Graph

Daily Weather History Graph

Search for Another Location

Airport or City:

Astronomy

Dec. 31, 2013 Rise Set
Actual Time 7:25 AM EST 4:48 PM EST
Civil Twilight 6:54 AM EST 5:18 PM EST
Nautical Twilight 6:20 AM EST 5:52 PM EST
Astronomical Twilight 5:47 AM EST 6:25 PM EST
Moon 6:15 AM EST (12/31) 4:21 PM EST (12/31)
Length of Visible Light 10h 23m
Length of Day
9h 23m
Waning Crescent, 1% of the Moon is Illuminated
Dec 31
Waning Crescent
Jan 1
New
Jan 7
First Quarter
Jan 15
Full
Jan 24
Last Quarter

Hourly Weather History & Observations

Time (EST) Temp. Windchill Dew Point Humidity Pressure Visibility Wind Dir Wind Speed Gust Speed Precip Events Conditions
12:15 AM 28.4 °F 22.2 °F 12.2 °F 51% 30.17 in 10.0 mi North 5.8 mph - N/A   Overcast
12:35 AM 28.4 °F 23.3 °F 12.2 °F 51% 30.17 in 10.0 mi North 4.6 mph - N/A   Overcast
12:55 AM 28.4 °F 22.2 °F 12.2 °F 51% 30.16 in 10.0 mi North 5.8 mph - N/A   Overcast
1:15 AM 26.6 °F 20.0 °F 12.2 °F 55% 30.15 in 10.0 mi North 5.8 mph - N/A   Scattered Clouds
1:35 AM 26.6 °F 22.6 °F 12.2 °F 55% 30.15 in 10.0 mi NNW 3.5 mph - N/A   Clear
1:55 AM 24.8 °F - 14.0 °F 64% 30.16 in 10.0 mi Calm Calm - N/A   Mostly Cloudy
2:15 AM 26.6 °F 22.6 °F 14.0 °F 59% 30.17 in 10.0 mi WNW 3.5 mph - N/A   Overcast
2:35 AM 26.6 °F 21.2 °F 12.2 °F 55% 30.17 in 10.0 mi NNW 4.6 mph - N/A   Overcast
2:55 AM 26.6 °F - 12.2 °F 55% 30.15 in 10.0 mi Calm Calm - N/A   Mostly Cloudy
3:15 AM 26.6 °F 22.6 °F 12.2 °F 55% 30.15 in 10.0 mi North 3.5 mph - N/A   Clear
3:35 AM 26.6 °F - 12.2 °F 55% 30.14 in 10.0 mi Calm Calm - N/A   Clear
3:55 AM 26.6 °F - 14.0 °F 59% 30.13 in 10.0 mi Calm Calm - N/A   Mostly Cloudy
4:15 AM 26.6 °F - 14.0 °F 59% 30.13 in 10.0 mi Calm Calm - N/A   Mostly Cloudy
4:35 AM 24.8 °F - 12.2 °F 59% 30.13 in 10.0 mi Calm Calm - N/A   Partly Cloudy
4:55 AM 26.6 °F - 12.2 °F 55% 30.13 in 10.0 mi Calm Calm - N/A   Mostly Cloudy
5:15 AM 26.6 °F - 14.0 °F 59% 30.13 in 10.0 mi Calm Calm - N/A   Overcast
5:35 AM 26.6 °F - 14.0 °F 59% 30.13 in 10.0 mi Calm Calm - N/A   Overcast
5:55 AM 26.6 °F - 14.0 °F 59% 30.13 in 10.0 mi Calm Calm - N/A   Mostly Cloudy
6:15 AM 24.8 °F - 14.0 °F 64% 30.14 in 10.0 mi Calm Calm - N/A   Mostly Cloudy
6:35 AM 26.6 °F - 14.0 °F 59% 30.13 in 10.0 mi Calm Calm - N/A   Overcast
6:55 AM 26.6 °F - 14.0 °F 59% 30.14 in 10.0 mi Calm Calm - N/A   Overcast
7:15 AM 26.6 °F - 14.0 °F 59% 30.14 in 10.0 mi Calm Calm - N/A   Mostly Cloudy
7:35 AM 26.6 °F - 15.8 °F 64% 30.14 in 10.0 mi Calm Calm - N/A   Mostly Cloudy
7:55 AM 26.6 °F - 15.8 °F 64% 30.14 in 10.0 mi Calm Calm - N/A   Mostly Cloudy
8:15 AM 26.6 °F - 17.6 °F 69% 30.13 in 10.0 mi Calm Calm - N/A   Overcast
8:35 AM 26.6 °F 22.6 °F 15.8 °F 64% 30.13 in 10.0 mi South 3.5 mph - N/A   Overcast
8:55 AM 28.4 °F - 17.6 °F 64% 30.13 in 10.0 mi Calm Calm - N/A   Overcast
9:15 AM 28.4 °F 23.3 °F 15.8 °F 59% 30.13 in 10.0 mi South 4.6 mph - N/A   Overcast
9:35 AM 28.4 °F 22.2 °F 14.0 °F 55% 30.13 in 10.0 mi SSW 5.8 mph - N/A   Overcast
9:55 AM 30.2 °F 25.4 °F 15.8 °F 55% 30.13 in 10.0 mi SSW 4.6 mph - N/A   Overcast
10:15 AM 30.2 °F 24.3 °F 17.6 °F 60% 30.13 in 10.0 mi South 5.8 mph - N/A   Overcast
10:35 AM 30.2 °F 23.4 °F 17.6 °F 60% 30.13 in 10.0 mi SSW 6.9 mph - N/A   Overcast
10:55 AM 32.0 °F 27.5 °F 19.4 °F 60% 30.12 in 10.0 mi SW 4.6 mph - N/A   Mostly Cloudy
11:15 AM 32.0 °F 25.6 °F 19.4 °F 60% 30.11 in 10.0 mi SW 6.9 mph 17.3 mph N/A   Scattered Clouds
11:35 AM 32.0 °F 26.4 °F 19.4 °F 60% 30.10 in 10.0 mi WSW 5.8 mph - N/A   Scattered Clouds
11:55 AM 32.0 °F 24.2 °F 21.2 °F 64% 30.09 in 10.0 mi SSW 9.2 mph - N/A   Mostly Cloudy
12:15 PM 32.0 °F 27.5 °F 21.2 °F 64% 30.08 in 10.0 mi SW 4.6 mph - N/A   Mostly Cloudy
12:35 PM 32.0 °F 24.8 °F 23.0 °F 69% 30.07 in 10.0 mi SW 8.1 mph - N/A   Mostly Cloudy
12:55 PM 33.8 °F 29.6 °F 23.0 °F 65% 30.07 in 10.0 mi SW 4.6 mph - N/A   Mostly Cloudy
1:15 PM 33.8 °F 28.6 °F 23.0 °F 65% 30.07 in 10.0 mi SW 5.8 mph - N/A   Mostly Cloudy
1:35 PM 33.8 °F 28.6 °F 23.0 °F 65% 30.08 in 10.0 mi WSW 5.8 mph - N/A   Mostly Cloudy
1:55 PM 35.6 °F 27.1 °F 23.0 °F 60% 30.09 in 10.0 mi West 12.7 mph 17.3 mph N/A   Partly Cloudy
2:15 PM 35.6 °F 25.2 °F 24.8 °F 65% 30.10 in 10.0 mi WNW 18.4 mph 21.9 mph N/A   Partly Cloudy
2:35 PM 35.6 °F 25.2 °F 26.6 °F 70% 30.11 in 10.0 mi WNW 18.4 mph 24.2 mph N/A   Partly Cloudy
2:55 PM 35.6 °F 25.5 °F 23.0 °F 60% 30.11 in 10.0 mi WNW 17.3 mph 25.3 mph N/A   Scattered Clouds
3:15 PM 35.6 °F 25.2 °F 23.0 °F 60% 30.12 in 10.0 mi WNW 18.4 mph 24.2 mph N/A   Scattered Clouds
3:35 PM 35.6 °F 25.5 °F 21.2 °F 56% 30.13 in 10.0 mi WNW 17.3 mph 24.2 mph N/A   Scattered Clouds
3:55 PM 35.6 °F 24.8 °F 19.4 °F 52% 30.13 in 10.0 mi WNW 19.6 mph 25.3 mph N/A   Scattered Clouds
4:15 PM 33.8 °F 21.3 °F 17.6 °F 52% 30.14 in 10.0 mi WNW 24.2 mph 28.8 mph N/A   Clear
4:35 PM 32.0 °F 20.1 °F 15.8 °F 51% 30.15 in 10.0 mi NW 19.6 mph 27.6 mph N/A   Clear
4:55 PM 32.0 °F 20.8 °F 14.0 °F 48% 30.16 in 10.0 mi WNW 17.3 mph 24.2 mph N/A   Clear
5:15 PM 32.0 °F 21.2 °F 14.0 °F 48% 30.18 in 10.0 mi WNW 16.1 mph 26.5 mph N/A   Clear
5:35 PM 32.0 °F 22.1 °F 14.0 °F 48% 30.20 in 10.0 mi NW 13.8 mph 18.4 mph N/A   Clear
5:55 PM 30.2 °F 18.5 °F 15.8 °F 55% 30.20 in 10.0 mi NW 17.3 mph 21.9 mph N/A   Clear
6:15 PM 30.2 °F 18.9 °F 14.0 °F 51% 30.22 in 10.0 mi NW 16.1 mph 21.9 mph N/A   Clear
6:35 PM 30.2 °F 21.3 °F 14.0 °F 51% 30.23 in 10.0 mi NW 10.4 mph - N/A   Clear
6:55 PM 28.4 °F 17.5 °F 14.0 °F 55% 30.23 in 10.0 mi NW 13.8 mph 18.4 mph N/A   Clear
7:15 PM 28.4 °F 18.5 °F 14.0 °F 55% 30.24 in 10.0 mi WNW 11.5 mph - N/A   Clear
7:35 PM 28.4 °F 18.0 °F 14.0 °F 55% 30.25 in 10.0 mi WNW 12.7 mph - N/A   Clear
7:55 PM 28.4 °F 18.5 °F 14.0 °F 55% 30.26 in 10.0 mi WNW 11.5 mph - N/A   Clear
8:15 PM 28.4 °F 18.0 °F 14.0 °F 55% 30.26 in 10.0 mi WNW 12.7 mph 19.6 mph N/A   Clear
8:35 PM 28.4 °F 16.2 °F 14.0 °F 55% 30.26 in 10.0 mi WNW 17.3 mph 21.9 mph N/A   Clear
8:55 PM 28.4 °F 17.0 °F 14.0 °F 55% 30.27 in 10.0 mi WNW 15.0 mph 20.7 mph N/A   Clear
9:15 PM 28.4 °F 18.5 °F 14.0 °F 55% 30.27 in 10.0 mi WNW 11.5 mph 19.6 mph N/A   Clear
9:35 PM 26.6 °F 15.7 °F 14.0 °F 59% 30.28 in 10.0 mi WNW 12.7 mph 18.4 mph N/A   Clear
9:55 PM 26.6 °F 16.8 °F 14.0 °F 59% 30.28 in 10.0 mi WNW 10.4 mph - N/A   Clear
10:15 PM 26.6 °F 18.2 °F 14.0 °F 59% 30.29 in 10.0 mi NW 8.1 mph - N/A   Clear
10:35 PM 26.6 °F 20.0 °F 14.0 °F 59% 30.30 in 10.0 mi NW 5.8 mph - N/A   Clear
10:55 PM 24.8 °F 20.5 °F 14.0 °F 64% 30.31 in 10.0 mi WNW 3.5 mph - N/A   Clear
11:15 PM 24.8 °F 20.5 °F 12.2 °F 59% 30.30 in 10.0 mi NW 3.5 mph - N/A   Clear
11:35 PM 23.0 °F 17.0 °F 12.2 °F 63% 30.30 in 10.0 mi NW 4.6 mph - N/A   Clear
11:55 PM 23.0 °F 18.4 °F 12.2 °F 63% 30.30 in 10.0 mi West 3.5 mph - N/A   Clear